| time (UTC) | temp F | wind direction | speed MPH | gust MPH | rain 1hr in | rain 24hr in | rain mn in | humidity % | barometer mb |
| 20260505224825 | 76 | 90 | 2.0 | 2.0 | 0.00 | 0.01 | 0.01 | 93 | 1007.0 |
| 20260505223805 | 76 | 90 | 1.0 | 2.0 | 0.00 | 0.01 | 0.01 | 92 | 1006.8 |
| 20260505221725 | 77 | 90 | 1.0 | 4.0 | 0.00 | 0.01 | 0.01 | 90 | 1006.7 |
| 20260505220154 | 77 | 90 | 2.0 | 2.0 | 0.00 | 0.01 | 0.01 | 89 | 1006.5 |
| 20260505215645 | 78 | 90 | 1.0 | 2.0 | 0.00 | 0.01 | 0.01 | 89 | 1006.6 |
| 20260505215134 | 78 | 90 | 1.0 | 2.0 | 0.00 | 0.01 | 0.01 | 88 | 1006.5 |
| 20260505214542 | 78 | 90 | 1.0 | 2.0 | 0.00 | 0.01 | 0.01 | 88 | 1006.6 |
| 20260505210507 | 80 | 90 | 2.0 | 4.0 | 0.00 | 0.01 | 0.01 | 83 | 1006.6 |
| 20260505204423 | 81 | 68 | 0.0 | 4.0 | 0.00 | 0.01 | 0.01 | 81 | 1006.5 |
| 20260505203403 | 81 | 113 | 2.0 | 4.0 | 0.00 | 0.01 | 0.01 | 80 | 1006.3 |
| 20260505201832 | 82 | 45 | 2.0 | 4.0 | 0.00 | 0.01 | 0.01 | 80 | 1006.7 |
| 20260505194219 | 80 | 68 | 2.0 | 4.0 | 0.00 | 0.01 | 0.01 | 83 | 1006.8 |
| 20260505193201 | 80 | 68 | 1.0 | 2.0 | 0.00 | 0.01 | 0.01 | 84 | 1006.9 |
| 20260505185548 | 80 | 90 | 2.0 | 4.0 | 0.00 | 0.01 | 0.01 | 83 | 1007.1 |
| 20260505180917 | 81 | 45 | 3.0 | 7.0 | 0.00 | 0.01 | 0.01 | 80 | 1006.6 |
| 20260505180407 | 81 | 45 | 3.0 | 8.0 | 0.00 | 0.01 | 0.01 | 81 | 1006.6 |
| 20260505173816 | 80 | 68 | 4.0 | 8.0 | 0.00 | 0.01 | 0.01 | 81 | 1006.9 |
| 20260505170716 | 79 | 68 | 4.0 | 11.0 | 0.00 | 0.01 | 0.01 | 83 | 1007.1 |
| 20260505170107 | 78 | 90 | 4.0 | 11.0 | 0.00 | 0.01 | 0.01 | 84 | 1007.4 |
| 20260505163008 | 76 | 68 | 5.0 | 9.0 | 0.01 | 0.01 | 0.01 | 89 | 1007.9 |
| 20260505161024 | 74 | 68 | 4.0 | 9.0 | 0.01 | 0.01 | 0.01 | 94 | 1008.2 |
| 20260505123828 | 69 | 68 | 4.0 | 9.0 | 0.00 | 0.00 | 0.00 | 96 | 1009.1 |
| 20260505121239 | 67 | 90 | 3.0 | 8.0 | 0.00 | 0.00 | 0.00 | 98 | 1009.1 |
| 20260505120727 | 67 | 68 | 4.0 | 9.0 | 0.00 | 0.00 | 0.00 | 99 | 1008.8 |
| 20260505120218 | 67 | 68 | 2.0 | 9.0 | 0.00 | 0.00 | 0.00 | 99 | 1008.9 |
| 20260505101854 | 66 | 135 | 3.0 | 6.0 | 0.00 | 0.00 | 0.00 | 99 | 1008.5 |
| 20260505100337 | 66 | 135 | 3.0 | 7.0 | 0.00 | 0.00 | 0.00 | 99 | 1008.1 |
| 20260505094800 | 66 | 135 | 2.0 | 7.0 | 0.00 | 0.00 | 0.00 | 99 | 1008.1 |
| 20260505094243 | 66 | 135 | 3.0 | 7.0 | 0.00 | 0.00 | 0.00 | 99 | 1008.0 |
| 20260505092714 | 66 | 135 | 2.0 | 7.0 | 0.00 | 0.00 | 0.00 | 99 | 1007.8 |
| 20260505084551 | 66 | 135 | 4.0 | 6.0 | 0.00 | 0.00 | 0.00 | 99 | 1007.8 |
| 20260505083532 | 66 | 135 | 3.0 | 6.0 | 0.00 | 0.00 | 0.00 | 99 | 1008.0 |
| 20260505075919 | 66 | 135 | 3.0 | 7.0 | 0.00 | 0.00 | 0.00 | 99 | 1007.9 |
| 20260505075409 | 66 | 135 | 3.0 | 4.0 | 0.00 | 0.00 | 0.00 | 99 | 1007.8 |
| 20260505073840 | 66 | 135 | 3.0 | 7.0 | 0.00 | 0.00 | 0.00 | 99 | 1007.8 |
| 20260505063638 | 66 | 135 | 2.0 | 4.0 | 0.00 | 0.00 | 0.00 | 99 | 1008.2 |
| 20260505061557 | 66 | 135 | 2.0 | 6.0 | 0.00 | 0.00 | 0.00 | 98 | 1008.3 |
| 20260505061048 | 66 | 135 | 3.0 | 4.0 | 0.00 | 0.00 | 0.00 | 98 | 1008.4 |
| 20260505052727 | 66 | 113 | 2.0 | 4.0 | 0.00 | 0.00 | 0.00 | 98 | 1008.5 |
| 20260505050646 | 67 | 113 | 4.0 | 4.0 | 0.00 | 0.00 | 0.00 | 97 | 1008.3 |
| 20260505050138 | 67 | 113 | 3.0 | 6.0 | 0.00 | 0.00 | 0.00 | 97 | 1008.2 |
| 20260505015532 | 67 | 68 | 3.0 | 8.0 | 0.00 | 0.00 | 0.00 | 94 | 1008.0 |
| 20260505014512 | 67 | 45 | 2.0 | 9.0 | 0.00 | 0.00 | 0.00 | 94 | 1007.9 |
| 20260505010350 | 67 | 23 | 3.0 | 8.0 | 0.00 | 0.00 | 0.00 | 93 | 1007.8 |
| 20260505004820 | 66 | 23 | 3.0 | 7.0 | 0.00 | 0.00 | 0.00 | 93 | 1007.8 |
| 20260505004309 | 66 | 45 | 2.0 | 7.0 | 0.00 | 0.00 | 0.00 | 93 | 1007.8 |
| 20260505003249 | 66 | 45 | 2.0 | 7.0 | 0.00 | 0.00 | 0.00 | 93 | 1007.9 |
| 20260505001646 | 66 | 68 | 2.0 | 7.0 | 0.00 | 0.00 | 0.00 | 92 | 1007.8 |
| 20260504233048 | 66 | 45 | 2.0 | 7.0 | 0.00 | 0.00 | 0.00 | 89 | 1007.0 |
| 20260504232537 | 66 | 68 | 2.0 | 7.0 | 0.00 | 0.00 | 0.00 | 88 | 1007.1 |
| 20260504232028 | 67 | 68 | 3.0 | 6.0 | 0.00 | 0.00 | 0.00 | 88 | 1006.9 |